• en France
  • Liste des pays
  • À 7 jours
  • Température de l'eau
  • Carte satellitaire
  • Carte météo
  • Widgets météo
  • user-avatar
    Se connecter

    Météo par heure à Grabowek

    Ce jour, 16 Octobre, Mardi

    Heure Température Précipitation Vent Pression Humidité
    00:00 +10°C° 0 mm 3 m/s 754 mmHg 69%
    01:00 +10°C° 0 mm 3 m/s 754 mmHg 68%
    02:00 +9°C° 0 mm 3 m/s 754 mmHg 69%
    03:00 +9°C° 0 mm 3 m/s 754 mmHg 70%
    04:00 +9°C° 0 mm 2 m/s 754 mmHg 72%
    05:00 +9°C° 0 mm 3 m/s 754 mmHg 72%
    06:00 +9°C° 0 mm 3 m/s 754 mmHg 72%
    07:00 +9°C° 0 mm 3 m/s 755 mmHg 69%
    08:00 +11°C° 0 mm 3 m/s 755 mmHg 64%
    09:00 +13°C° 0 mm 3 m/s 755 mmHg 58%
    10:00 +16°C° 0 mm 3 m/s 755 mmHg 52%
    11:00 +17°C° 0 mm 3 m/s 755 mmHg 49%
    12:00 +18°C° 0 mm 3 m/s 755 mmHg 46%
    13:00 +19°C° 0 mm 3 m/s 755 mmHg 43%
    14:00 +18°C° 0 mm 2 m/s 754 mmHg 47%
    15:00 +17°C° 0 mm 2 m/s 754 mmHg 51%
    16:00 +16°C° 0 mm 2 m/s 754 mmHg 55%
    17:00 +15°C° 0 mm 2 m/s 754 mmHg 57%
    18:00 +14°C° 0 mm 2 m/s 754 mmHg 60%
    19:00 +13°C° 0 mm 2 m/s 754 mmHg 63%
    20:00 +12°C° 0 mm 2 m/s 754 mmHg 64%
    21:00 +12°C° 0 mm 2 m/s 755 mmHg 65%
    22:00 +12°C° 0 mm 2 m/s 755 mmHg 67%
    23:00 +10°C° 0 mm 2 m/s 755 mmHg 67%

    Demain, 17 Octobre, Mercredi

    Heure Température Précipitation Vent Pression Humidité
    00:00 +10°C° 0 mm 2 m/s 755 mmHg 68%
    01:00 +10°C° 0 mm 2 m/s 755 mmHg 69%
    02:00 +10°C° 0 mm 1 m/s 755 mmHg 70%
    03:00 +10°C° 0 mm 1 m/s 755 mmHg 71%
    04:00 +10°C° 0 mm 1 m/s 754 mmHg 71%
    05:00 +9°C° 0 mm 2 m/s 755 mmHg 71%
    06:00 +9°C° 0 mm 2 m/s 755 mmHg 71%
    07:00 +9°C° 0 mm 2 m/s 755 mmHg 71%
    08:00 +12°C° 0 mm 2 m/s 755 mmHg 64%
    09:00 +14°C° 0 mm 2 m/s 755 mmHg 56%
    10:00 +16°C° 0 mm 2 m/s 755 mmHg 49%
    11:00 +17°C° 0 mm 2 m/s 755 mmHg 46%
    12:00 +20°C° 0 mm 1 m/s 755 mmHg 43%
    13:00 +21°C° 0 mm 1 m/s 755 mmHg 40%
    14:00 +20°C° 0 mm 1 m/s 755 mmHg 44%
    15:00 +18°C° 0 mm 1 m/s 754 mmHg 48%
    16:00 +16°C° 0 mm 1 m/s 754 mmHg 52%
    17:00 +15°C° 0 mm 1 m/s 754 mmHg 55%
    18:00 +14°C° 0 mm 1 m/s 754 mmHg 57%
    19:00 +13°C° 0 mm 2 m/s 754 mmHg 60%
    20:00 +13°C° 0 mm 2 m/s 754 mmHg 61%
    21:00 +12°C° 0 mm 2 m/s 754 mmHg 63%
    22:00 +12°C° 0 mm 2 m/s 754 mmHg 64%
    23:00 +10°C° 0 mm 2 m/s 754 mmHg 66%

    Après-demain, 18 Octobre, Jeudi

    Heure Température Précipitation Vent Pression Humidité
    00:00 +10°C° 0 mm 2 m/s 754 mmHg 67%
    01:00 +10°C° 0 mm 2 m/s 754 mmHg 69%
    02:00 +10°C° 0 mm 2 m/s 754 mmHg 70%
    03:00 +10°C° 0 mm 2 m/s 753 mmHg 72%
    04:00 +9°C° 0 mm 2 m/s 753 mmHg 73%
    05:00 +9°C° 0 mm 2 m/s 753 mmHg 75%
    06:00 +9°C° 0 mm 2 m/s 753 mmHg 76%
    07:00 +9°C° 0 mm 2 m/s 753 mmHg 77%
    08:00 +12°C° 0 mm 2 m/s 753 mmHg 71%
    09:00 +14°C° 0 mm 2 m/s 753 mmHg 65%
    10:00 +16°C° 0 mm 2 m/s 753 mmHg 59%
    11:00 +17°C° 0 mm 2 m/s 752 mmHg 55%
    12:00 +18°C° 0 mm 2 m/s 752 mmHg 52%
    13:00 +20°C° 0 mm 1 m/s 752 mmHg 48%
    14:00 +19°C° 0 mm 1 m/s 752 mmHg 51%
    15:00 +18°C° 0 mm 1 m/s 751 mmHg 55%
    16:00 +16°C° 0 mm 1 m/s 751 mmHg 58%
    17:00 +15°C° 0 mm 1 m/s 751 mmHg 59%
    18:00 +15°C° 0 mm 1 m/s 752 mmHg 61%
    19:00 +14°C° 0 mm 1 m/s 752 mmHg 62%
    20:00 +14°C° 0 mm 1 m/s 752 mmHg 64%
    21:00 +14°C° 0 mm 1 m/s 752 mmHg 65%
    22:00 +13°C° 0 mm 1 m/s 752 mmHg 67%
    23:00 +13°C° 0 mm 1 m/s 752 mmHg 70%

    19 Octobre, Vendredi

    Heure Température Précipitation Vent Pression Humidité
    00:00 +12°C° 0 mm 1 m/s 752 mmHg 73%
    01:00 +10°C° 0 mm 2 m/s 752 mmHg 76%
    02:00 +10°C° 0 mm 2 m/s 752 mmHg 78%
    03:00 +10°C° 0 mm 2 m/s 752 mmHg 79%
    04:00 +10°C° 0 mm 2 m/s 752 mmHg 81%
    05:00 +10°C° 0 mm 2 m/s 752 mmHg 83%
    06:00 +12°C° 0 mm 2 m/s 752 mmHg 85%
    07:00 +12°C° 0 mm 2 m/s 753 mmHg 87%
    08:00 +13°C° 0 mm 2 m/s 753 mmHg 83%
    09:00 +13°C° 0 mm 3 m/s 753 mmHg 79%
    10:00 +14°C° 0 mm 3 m/s 753 mmHg 75%
    11:00 +14°C° 0 mm 3 m/s 753 mmHg 71%
    12:00 +14°C° 0 mm 3 m/s 753 mmHg 67%
    13:00 +16°C° 0 mm 3 m/s 753 mmHg 64%
    14:00 +14°C° 0 mm 3 m/s 753 mmHg 66%
    15:00 +13°C° 0 mm 3 m/s 754 mmHg 68%
    16:00 +14°C° 0 mm 2 m/s 754 mmHg 71%
    17:00 +12°C° 0 mm 2 m/s 754 mmHg 76%
    18:00 +10°C° 0 mm 2 m/s 754 mmHg 81%
    19:00 +9°C° 0 mm 2 m/s 754 mmHg 86%
    20:00 +8°C° 0 mm 2 m/s 755 mmHg 88%
    21:00 +8°C° 0 mm 2 m/s 755 mmHg 90%
    22:00 +7°C° 0 mm 2 m/s 755 mmHg 92%
    23:00 +8°C° 0 mm 1 m/s 755 mmHg 93%

    20 Octobre, Samedi

    Heure Température Précipitation Vent Pression Humidité
    00:00 +7°C° 0 mm 1 m/s 755 mmHg 94%
    01:00 +7°C° 0 mm 1 m/s 755 mmHg 94%
    02:00 +7°C° 0 mm 1 m/s 755 mmHg 95%
    03:00 +6°C° 0 mm 1 m/s 755 mmHg 95%
    04:00 +6°C° 0 mm 1 m/s 755 mmHg 95%
    05:00 +6°C° 0 mm 1 m/s 755 mmHg 95%
    06:00 +6°C° 0 mm 1 m/s 755 mmHg 95%
    07:00 +6°C° 0 mm 1 m/s 755 mmHg 95%
    08:00 +7°C° 0 mm 1 m/s 755 mmHg 87%
    09:00 +9°C° 0 mm 1 m/s 755 mmHg 80%
    10:00 +11°C° 0 mm 1 m/s 755 mmHg 72%
    11:00 +11°C° 0 mm 1 m/s 755 mmHg 67%
    12:00 +12°C° 0 mm 1 m/s 755 mmHg 63%
    13:00 +12°C° 0 mm 2 m/s 754 mmHg 59%
    14:00 +12°C° 0 mm 2 m/s 754 mmHg 61%
    15:00 +11°C° 0 mm 1 m/s 754 mmHg 63%
    16:00 +11°C° 0 mm 1 m/s 754 mmHg 66%
    17:00 +10°C° 0 mm 1 m/s 754 mmHg 69%
    18:00 +9°C° 0 mm 1 m/s 754 mmHg 72%
    19:00 +8°C° 0 mm 1 m/s 755 mmHg 75%
    20:00 +8°C° 0 mm 1 m/s 755 mmHg 77%
    21:00 +7°C° 0 mm 1 m/s 755 mmHg 78%
    22:00 +7°C° 0 mm 1 m/s 755 mmHg 80%
    23:00 +6°C° 0 mm 1 m/s 755 mmHg 82%

    21 Octobre, Dimanche

    Heure Température Précipitation Vent Pression Humidité
    00:00 +6°C° 0 mm 1 m/s 755 mmHg 84%
    01:00 +6°C° 0 mm 1 m/s 755 mmHg 85%
    02:00 +5°C° 0 mm 1 m/s 755 mmHg 86%
    03:00 +5°C° 0 mm 1 m/s 756 mmHg 87%
    04:00 +5°C° 0 mm 1 m/s 756 mmHg 88%
    05:00 +5°C° 0 mm 1 m/s 756 mmHg 88%
    06:00 +5°C° 0 mm 1 m/s 756 mmHg 87%
    07:00 +5°C° 0 mm 1 m/s 756 mmHg 86%
    08:00 +7°C° 0 mm 1 m/s 757 mmHg 78%
    09:00 +8°C° 0 mm 1 m/s 757 mmHg 70%
    10:00 +10°C° 0 mm 1 m/s 757 mmHg 62%
    11:00 +11°C° 0 mm 1 m/s 757 mmHg 59%
    12:00 +12°C° 0 mm 1 m/s 757 mmHg 56%
    13:00 +12°C° 0 mm 1 m/s 757 mmHg 52%
    14:00 +11°C° 0 mm 1 m/s 757 mmHg 57%
    15:00 +11°C° 0 mm 1 m/s 756 mmHg 61%
    16:00 +10°C° 0 mm 1 m/s 756 mmHg 66%
    17:00 +9°C° 0 mm 1 m/s 756 mmHg 70%
    18:00 +8°C° 0 mm 1 m/s 756 mmHg 74%
    19:00 +7°C° 0 mm 1 m/s 756 mmHg 79%
    20:00 +7°C° 0 mm 1 m/s 756 mmHg 81%
    21:00 +7°C° 0 mm 1 m/s 756 mmHg 83%
    22:00 +6°C° 0 mm 2 m/s 756 mmHg 85%
    23:00 +6°C° 0 mm 2 m/s 756 mmHg 87%
    Voir plus